This is the latest recevied weather packets stored in our database for station/object E23XBQ-1. If no packets are shown the sender has not sent any weather packets the latest 1 day(s).
| Time | Temp. | Humidity | Pressure | Rain* | Wind** | Luminosity | Snow |
|---|---|---|---|---|---|---|---|
| 1836274413 | 30° C | 85% | 972 hPa | - | 0 m/s | 0 W/m² | - |
| 1836274288 | 30.56° C | 83% | 972 hPa | - | 0 m/s | 0 W/m² | - |
| 1778071575 | 30° C | 98% | 968 hPa | - | 0 m/s | 0 W/m² | - |
| 1778070930 | 30° C | 96% | 968 hPa | - | 0 m/s | 0 W/m² | - |
| 1778070306 | 30° C | 87% | 968 hPa | - | 0 m/s | 0 W/m² | - |
| 1778069832 | 30° C | 84% | 968 hPa | - | 0 m/s | 0 W/m² | - |
| 1778069208 | 30° C | 80% | 968 hPa | - | 0 m/s | 0 W/m² | - |
| 1778068583 | 30° C | 83% | 968 hPa | - | 0 m/s | 0 W/m² | - |
| 1778067958 | 30.56° C | 83% | 968 hPa | - | 0 m/s | 0 W/m² | - |
| 1778067641 | 30.56° C | 73% | 968 hPa | - | 0 m/s | 0 W/m² | - |
| 1778067017 | 31.11° C | 80% | 967 hPa | - | 0 m/s | 0 W/m² | - |
| 1778066392 | 31.67° C | 69% | 967 hPa | - | 0 m/s | 0 W/m² | - |
| 1778065767 | 32.22° C | 69% | 967 hPa | - | 0 m/s | 0 W/m² | - |
| 1778065141 | 32.78° C | 62% | 967 hPa | - | 0 m/s | 0 W/m² | - |
| 1778064517 | 32.78° C | 63% | 967 hPa | - | 0 m/s | 0 W/m² | - |
| 1778063893 | 33.33° C | 60% | 967 hPa | - | 0 m/s | 0 W/m² | - |
| 1778063268 | 33.89° C | 59% | 967 hPa | - | 0 m/s | 0 W/m² | - |
| 1778062644 | 33.89° C | 54% | 967 hPa | - | 0 m/s | 0 W/m² | - |
| 1778062019 | 34.44° C | 57% | 967 hPa | - | 0 m/s | 0 W/m² | - |
| 1778061394 | 35° C | 56% | 967 hPa | - | 0 m/s | 0 W/m² | - |
| 1778060770 | 34.44° C | 59% | 967 hPa | - | 0 m/s | 0 W/m² | - |
| 1778060230 | 33.89° C | 66% | 967 hPa | - | 0 m/s | 0 W/m² | - |
| 1778059605 | 33.33° C | 68% | 967 hPa | - | 0 m/s | 0 W/m² | - |
| 1778058980 | 33.33° C | 66% | 968 hPa | - | 0 m/s | 0 W/m² | - |
| 1778058355 | 32.78° C | 68% | 968 hPa | - | 0 m/s | 0 W/m² | - |
* Rain since midnight (hover to see other rain measurements)
** Current wind speed in m/s (hover to see current wind gust speed)